CW4489 Marathon FL US current weather conditions

sailwx.info

Wind from 074 at 1 knots gusting 3

Air temperature 25.6° C
Dewpoint 18.7° C

Last reported at 2015-Mar-31 22:39 UTC.
Time now 2015-Mar-31 23:52 UTC

Location: N 24°44' W 081°02'.
View on Google Maps.

See reports from other nearby stations

  
Tides and Currents Weather Stations Pressure Air Temp Water Temp Dewpoint Dewpoint Depression Visibility Wind Speed Wind Dir Waves Ship Positions
date/time (UTC)wind fromknots sea level pressurealtimeterstation pressurevisibilityair tempwater tempwave heightnotes
2015-Mar-31 22:39 074 1 gusting 3 25.6
2015-Mar-31 22:29 083 1 gusting 2 25.6
2015-Mar-31 22:09 133 0 gusting 2 26.1
2015-Mar-31 21:49 100 26.7
2015-Mar-31 21:39 103 1 gusting 5 26.7
2015-Mar-31 21:09 115 2 gusting 2 26.7
2015-Mar-31 20:49 067 27.8
2015-Mar-31 19:59 094 28.9
2015-Mar-31 19:49 097 0 gusting 4 28.3
2015-Mar-31 19:29 028 2 gusting 5 27.8
2015-Mar-31 18:59 028 4 gusting 6 27.8
2015-Mar-31 18:49 049 2 gusting 5 27.8
2015-Mar-31 18:39 081 3 gusting 4 27.8
2015-Mar-31 17:49 064 2 gusting 6 26.7
2015-Mar-31 17:39 057 2 gusting 6 26.7
2015-Mar-31 17:29 064 2 gusting 6 26.7
2015-Mar-31 17:19 034 5 gusting 5 26.7
2015-Mar-31 17:09 020 2 gusting 6 26.7
2015-Mar-31 16:59 071 3 gusting 6 26.7
2015-Mar-31 16:39 066 1 gusting 4 26.7
2015-Mar-31 16:19 062 3 gusting 6 26.7
2015-Mar-31 16:09 040 2 gusting 6 26.1
2015-Mar-31 15:59 036 0 gusting 5 25.6
2015-Mar-31 15:39 042 2 gusting 6 25.6
2015-Mar-31 15:19 022 0 gusting 6 25.0
2015-Mar-31 14:59 005 2 gusting 6 25.0
2015-Mar-31 14:49 025 4 gusting 5 24.4
2015-Mar-31 14:19 031 1 gusting 5 23.9
2015-Mar-31 14:09 051 5 gusting 6 23.3
2015-Mar-31 13:59 040 2 gusting 6 23.3
2015-Mar-31 13:39 032 4 gusting 7 22.8
2015-Mar-31 13:29 028 2 gusting 6 22.8
2015-Mar-31 13:19 034 3 gusting 6 22.2
2015-Mar-31 13:09 032 2 gusting 6 21.7
2015-Mar-31 12:49 029 2 gusting 6 21.7
2015-Mar-31 12:19 036 0 gusting 6 20.6
2015-Mar-31 11:59 036 2 gusting 4 20.0
2015-Mar-31 11:39 024 19.4
2015-Mar-31 11:19 360 19.4
2015-Mar-31 10:59 355 19.4
2015-Mar-31 10:49 355 19.4
2015-Mar-31 10:39 355 20.0
2015-Mar-31 10:09 351 20.0
2015-Mar-31 09:59 355 20.0
2015-Mar-31 09:49 350 0 gusting 2 20.0
2015-Mar-31 09:39 351 1 gusting 2 20.0
2015-Mar-31 09:29 349 0 gusting 1 20.0
2015-Mar-31 08:39 024 19.4
2015-Mar-31 08:19 024 19.4
2015-Mar-31 07:59 024 19.4
2015-Mar-31 07:39 024 19.4
2015-Mar-31 07:29 024 19.4
2015-Mar-31 07:19 024 19.4
2015-Mar-31 07:09 024 19.4
2015-Mar-31 06:59 024 0 gusting 0 19.4
2015-Mar-31 06:49 024 19.4
2015-Mar-31 06:39 024 19.4
2015-Mar-31 06:29 024 0 gusting 1 19.4
2015-Mar-31 05:49 024 18.9
2015-Mar-31 05:39 024 19.4
2015-Mar-31 05:24 024 19.4
2015-Mar-31 02:19 024 20.6
2015-Mar-31 02:09 024 20.6
2015-Mar-31 01:59 024 20.6
2015-Mar-31 01:49 024 21.1
2015-Mar-31 01:39 024 21.1
2015-Mar-31 01:29 024 21.1
2015-Mar-31 01:19 019 0 gusting 1 21.1
2015-Mar-31 01:09 019 21.1
2015-Mar-31 00:59 019 21.1
2015-Mar-31 00:49 019 0 gusting 0 21.7
2015-Mar-31 00:39 019 21.7
2015-Mar-31 00:29 019 21.7
2015-Mar-31 00:19 017 21.7
2015-Mar-31 00:09 017 0 gusting 1 22.2
2015-Mar-30 23:59 015 22.2
2015-Mar-30 23:49 017 0 gusting 2 22.2
2015-Mar-30 23:29 355 2 gusting 3 22.8
2015-Mar-30 23:19 350 1 gusting 2 23.3
2015-Mar-30 23:09 013 2 gusting 3 23.3
2015-Mar-30 22:59 335 2 gusting 4 23.9
2015-Mar-30 22:49 344 0 gusting 2 23.9
2015-Mar-30 22:39 013 0 gusting 2 23.9
2015-Mar-30 22:29 019 0 gusting 3 23.9
2015-Mar-30 22:19 332 1 gusting 3 23.9
2015-Mar-30 22:09 016 2 gusting 3 24.4
2015-Mar-30 21:59 022 0 gusting 2 23.9
2015-Mar-30 21:39 341 4 gusting 5 24.4
2015-Mar-30 21:09 329 2 gusting 5 25.6
2015-Mar-30 20:59 324 4 gusting 4 26.1
2015-Mar-30 20:39 005 26.7
2015-Mar-30 20:30 046 0 gusting 2 26.7
2015-Mar-30 20:09 038 2 gusting 4 26.1
2015-Mar-30 19:59 046 2 gusting 2 25.6
2015-Mar-30 19:39 044 2 gusting 6 25.0
2015-Mar-30 19:29 028 1 gusting 3 25.0
2015-Mar-30 18:59 032 2 gusting 6 25.0
2015-Mar-30 18:49 043 2 gusting 6 25.0
2015-Mar-30 18:29 023 5 gusting 5 25.6
2015-Mar-30 18:09 053 3 gusting 5 25.6
2015-Mar-30 17:59 049 3 gusting 5 25.6
2015-Mar-30 17:39 028 2 gusting 6 24.4
2015-Mar-30 17:29 040 5 gusting 6 24.4
2015-Mar-30 17:19 034 0 gusting 5 24.4
2015-Mar-30 17:09 067 5 gusting 6 24.4
2015-Mar-30 16:59 029 3 gusting 6 24.4
2015-Mar-30 16:39 039 4 gusting 6 23.9
2015-Mar-30 16:19 036 4 gusting 6 23.9
2015-Mar-30 16:09 057 2 gusting 7 23.9
2015-Mar-30 15:59 034 0 gusting 6 23.3
2015-Mar-30 15:09 005 2 gusting 6 23.3
2015-Mar-30 14:59 073 2 gusting 6 22.8
2015-Mar-30 14:49 043 5 gusting 6 22.8
2015-Mar-30 14:39 033 4 gusting 8 22.2
2015-Mar-30 14:19 017 3 gusting 7 21.7
2015-Mar-30 14:09 043 6 gusting 6 21.7
2015-Mar-30 13:49 030 2 gusting 6 21.1
2015-Mar-30 13:19 036 2 gusting 8 20.0
2015-Mar-30 13:09 032 5 gusting 8 20.0
2015-Mar-30 12:59 053 4 gusting 6 20.0
2015-Mar-30 12:49 020 5 gusting 7 19.4
2015-Mar-30 12:29 028 5 gusting 7 19.4
2015-Mar-30 12:19 028 9 gusting 9 18.9
2015-Mar-30 11:59 045 3 gusting 6 19.4
2015-Mar-30 11:49 047 5 gusting 8 18.9
2015-Mar-30 11:29 025 7 gusting 7 18.9
2015-Mar-30 10:49 033 4 gusting 6 18.9
2015-Mar-30 10:39 024 3 gusting 9 18.9
2015-Mar-30 10:29 039 3 gusting 7 18.9
2015-Mar-30 10:09 053 6 gusting 7 18.9
2015-Mar-30 09:59 053 3 gusting 6 18.9
2015-Mar-30 09:49 042 2 gusting 6 18.9
2015-Mar-30 09:39 042 6 gusting 8 18.9
2015-Mar-30 09:19 053 3 gusting 7 18.9
2015-Mar-30 09:09 042 4 gusting 7 18.9
2015-Mar-30 08:59 037 6 gusting 7 18.9
2015-Mar-30 08:39 037 6 gusting 7 19.4
2015-Mar-30 08:29 040 2 gusting 8 19.4
2015-Mar-30 07:59 041 5 gusting 8 19.4
2015-Mar-30 07:49 072 2 gusting 8 19.4
2015-Mar-30 07:39 005 4 gusting 8 19.4
2015-Mar-30 07:29 022 6 gusting 6 19.4
2015-Mar-30 07:09 037 3 gusting 8 19.4
2015-Mar-30 06:49 027 2 gusting 6 19.4
2015-Mar-30 06:39 061 6 gusting 8 20.0
2015-Mar-30 06:29 038 2 gusting 6 20.0
2015-Mar-30 06:19 035 5 gusting 6 20.0
2015-Mar-30 05:59 043 4 gusting 8 20.0
2015-Mar-30 05:49 025 1 gusting 8 20.0
2015-Mar-30 05:39 059 2 gusting 6 20.6
2015-Mar-30 05:19 026 4 gusting 8 20.6
2015-Mar-30 05:09 061 2 gusting 6 20.6
2015-Mar-30 04:49 083 7 gusting 8 20.6
2015-Mar-30 04:39 045 2 gusting 7 21.1
2015-Mar-30 04:29 034 2 gusting 8 21.1
2015-Mar-30 04:19 044 1 gusting 7 21.1
2015-Mar-30 04:09 069 2 gusting 8 21.1
2015-Mar-30 03:59 089 2 gusting 5 21.1
2015-Mar-30 03:49 034 6 gusting 6 21.1
2015-Mar-30 03:29 035 3 gusting 5 21.1
2015-Mar-30 03:19 059 0 gusting 5 21.1
2015-Mar-30 02:59 064 2 gusting 5 21.1
2015-Mar-30 02:49 049 0 gusting 7 21.1
2015-Mar-30 02:39 080 21.1
2015-Mar-30 02:19 074 2 gusting 7 21.1
2015-Mar-30 02:09 068 3 gusting 7 21.1
2015-Mar-30 01:49 075 5 gusting 7 21.1
2015-Mar-30 00:59 086 1 gusting 7 21.7
2015-Mar-30 00:39 084 1 gusting 6 21.7
2015-Mar-30 00:19 062 1 gusting 5 21.7
2015-Mar-29 23:59 069 0 gusting 6 22.2
2015-Mar-29 23:49 065 2 gusting 5 22.2
2015-Mar-29 23:19 051 1 gusting 5 23.3